This demonstration page uses our WeatherBlox Daily Observations layout. Learn more.

Left ArrowRight Arrow

41.86663, -103.66717

Hourly Observations for April 14, 2018

Temp ( °F °C ) Dew Point ( °F °C ) Humidity (%) Winds ( mph kmh ) Pressure ( in mb ) Visibility ( mi km ) Precip ( " mm )
12:53 am 00:53 Cloudy 25 -4 N/A N/A NNW 14 22 30.27 1025 10 16 N/A
1:53 am 01:53 Cloudy 25 -4 N/A N/A NNW 14 22 30.25 1025 10 16 N/A
2:53 am 02:53 Cloudy 27 -3 N/A N/A NW 16 26 30.23 1024 10 16 N/A
3:15 am 03:15 Cloudy 27 -3 N/A N/A NW 15 24 30.30 1026 10 16 N/A
3:41 am 03:41 Cloudy 27 -3 N/A N/A NW 13 20 30.30 1026 10 16 N/A
3:53 am 03:53 Cloudy 27 -3 N/A N/A NW 13 20 30.23 1024 10 16 N/A
4:03 am 04:03 Cloudy 28 -2 N/A N/A NNW 15 24 30.27 1025 10 16 N/A
4:23 am 04:23 Cloudy 28 -2 N/A N/A NW 15 24 30.27 1025 10 16 N/A
4:48 am 04:48 Cloudy 27 -3 N/A N/A N 13 20 30.30 1026 10 16 N/A
4:53 am 04:53 Cloudy 27 -3 N/A N/A N 13 20 30.25 1024 10 16 N/A
5:25 am 05:25 Mostly Cloudy 25 -4 N/A N/A N 14 22 30.30 1026 10 16 N/A
5:53 am 05:53 Clear 27 -3 N/A N/A NW 8 13 30.26 1025 10 16 N/A
6:33 am 06:33 Mostly Cloudy 27 -3 N/A N/A NNW 15 24 30.33 1027 10 16 N/A
6:53 am 06:53 Cloudy 27 -3 N/A N/A NNW 13 20 30.27 1025 10 16 N/A
7:53 am 07:53 Cloudy 30 -1 N/A N/A NNW 25 41 30.28 1026 10 16 N/A
8:53 am 08:53 Cloudy 30 -1 N/A N/A NNW 23 37 30.29 1026 10 16 N/A
9:53 am 09:53 Cloudy 32 undefined N/A N/A NNW 22 35 30.29 1026 10 16 N/A
10:53 am 10:53 Cloudy 35 1.7 35 1.7 100 100 N 22 35 30.28 1025 10 16 N/A
11:28 am 11:28 Partly Cloudy 38 3.3 36 2.2 93 93 N 22 35 30.24 1024 10 16 N/A
11:53 am 11:53 Mostly Sunny 39 3.9 36 2.2 89 89 NNW 20 31 30.25 1024 10 16 N/A
12:53 pm 12:53 Mostly Sunny 40 4.4 35 1.7 83 83 N 20 31 30.24 1024 10 16 N/A
1:53 pm 13:53 Sunny 44 6.7 35 1.7 71 71 N 18 30 30.22 1023 10 16 N/A
2:53 pm 14:53 Sunny 45 7.2 29 -1.7 54 54 N 25 41 30.19 1022 10 16 N/A
3:53 pm 15:53 Sunny 48 8.9 31 -0.6 52 52 NNW 22 35 30.16 1021 10 16 N/A
4:53 pm 16:53 Sunny 47 8.3 30 -1.1 52 52 N 18 30 30.16 1021 10 16 N/A
5:53 pm 17:53 Sunny 46 7.8 31 -0.6 56 56 N 15 24 30.17 1022 10 16 N/A
6:53 pm 18:53 Sunny 40 4.4 29 -1.7 65 65 NNE 13 20 30.19 1022 10 16 N/A
7:53 pm 19:53 Clear 32 undefined 25 -3.9 75 75 VRB 5 7 30.23 1024 10 16 N/A
8:53 pm 20:53 Clear 30 -1.1 17 -8.3 58 58 ESE 7 11 30.25 1024 10 16 N/A
9:53 pm 21:53 Clear 27 -2.8 13 -10.6 55 55 S 6 9 30.26 1025 10 16 N/A
10:53 pm 22:53 Mostly Cloudy 27 -2.8 13 -10.6 55 55 W 3 6 30.26 1025 10 16 N/A
11:53 pm 23:53 Cloudy 28 -2.2 13 -10.6 53 53 N 5 7 30.25 1024 10 16 N/A

Powered by AerisWeather